owner,sensor,date,latitude,longitude,vertical_datum,sea_water_practical_salinity,qcFlag 
SCCF RECON,ioos:station:SCCF:12:1,2008-06-01T00:00:00Z,26.4966,-82.1479,1.87,38.92,1111122 
SCCF RECON,ioos:station:SCCF:12:1,2008-06-01T01:00:00Z,26.4966,-82.1479,2.02,38.91,1111122 
SCCF RECON,ioos:station:SCCF:12:1,2008-06-01T02:00:00Z,26.4966,-82.1479,2.146,38.9,1111122 
SCCF RECON,ioos:station:SCCF:12:1,2008-06-01T03:00:00Z,26.4966,-82.1479,2.243,39.0,1111122 
SCCF RECON,ioos:station:SCCF:12:1,2008-06-01T04:00:00Z,26.4966,-82.1479,2.31,39.1,1111122 
SCCF RECON,ioos:station:SCCF:12:1,2008-06-01T05:00:00Z,26.4966,-82.1479,2.31,38.99,1111122 
SCCF RECON,ioos:station:SCCF:12:1,2008-06-01T06:00:00Z,26.4966,-82.1479,2.25,38.74,1111122 
SCCF RECON,ioos:station:SCCF:12:1,2008-06-01T07:00:00Z,26.4966,-82.1479,2.16,38.67,1111122 
SCCF RECON,ioos:station:SCCF:12:1,2008-06-01T08:00:00Z,26.4966,-82.1479,2.088,38.67,1111122 
SCCF RECON,ioos:station:SCCF:12:1,2008-06-01T09:00:00Z,26.4966,-82.1479,2.036,38.67,1111122 
SCCF RECON,ioos:station:SCCF:12:1,2008-06-01T10:00:00Z,26.4966,-82.1479,2.05,38.68,1111122 
SCCF RECON,ioos:station:SCCF:12:1,2008-06-01T11:00:00Z,26.4966,-82.1479,2.147,38.88,1111122 
SCCF RECON,ioos:station:SCCF:12:1,2008-06-01T12:00:00Z,26.4966,-82.1479,2.29,38.92,1111122 
SCCF RECON,ioos:station:SCCF:12:1,2008-06-01T13:00:00Z,26.4966,-82.1479,2.41,38.9,1111122 
SCCF RECON,ioos:station:SCCF:12:1,2008-06-01T14:00:00Z,26.4966,-82.1479,2.489,38.87,1111122 
SCCF RECON,ioos:station:SCCF:12:1,2008-06-01T15:00:00Z,26.4966,-82.1479,2.53,38.78,1111122 
SCCF RECON,ioos:station:SCCF:12:1,2008-06-01T16:00:00Z,26.4966,-82.1479,2.516,38.85,1111122 
SCCF RECON,ioos:station:SCCF:12:1,2008-06-01T17:00:00Z,26.4966,-82.1479,2.43,38.84,1111122 
SCCF RECON,ioos:station:SCCF:12:1,2008-06-01T18:00:00Z,26.4966,-82.1479,2.285,38.84,1111122 
SCCF RECON,ioos:station:SCCF:12:1,2008-06-01T19:00:00Z,26.4966,-82.1479,2.112,38.84,1111122 
SCCF RECON,ioos:station:SCCF:12:1,2008-06-01T20:00:00Z,26.4966,-82.1479,1.963,38.79,1111122 
SCCF RECON,ioos:station:SCCF:12:1,2008-06-01T21:00:00Z,26.4966,-82.1479,1.822,38.89,1111122 
SCCF RECON,ioos:station:SCCF:12:1,2008-06-01T22:00:00Z,26.4966,-82.1479,1.691,38.95,1111122 
SCCF RECON,ioos:station:SCCF:12:1,2008-06-01T23:00:00Z,26.4966,-82.1479,1.609,38.97,1111122 
SCCF RECON,ioos:station:SCCF:12:1,2008-06-02T00:00:00Z,26.4966,-82.1479,1.637,38.94,1111122 
SCCF RECON,ioos:station:SCCF:12:1,2008-06-02T01:00:00Z,26.4966,-82.1479,1.81,38.84,1111122 
SCCF RECON,ioos:station:SCCF:12:1,2008-06-02T02:00:00Z,26.4966,-82.1479,1.97,38.9,1111122 
SCCF RECON,ioos:station:SCCF:12:1,2008-06-02T03:00:00Z,26.4966,-82.1479,2.11,38.91,1111122 
SCCF RECON,ioos:station:SCCF:12:1,2008-06-02T04:00:00Z,26.4966,-82.1479,2.22,38.93,1111122 
SCCF RECON,ioos:station:SCCF:12:1,2008-06-02T05:00:00Z,26.4966,-82.1479,2.281,38.93,1111122 
SCCF RECON,ioos:station:SCCF:12:1,2008-06-02T06:00:00Z,26.4966,-82.1479,2.28,38.97,1111122 
SCCF RECON,ioos:station:SCCF:12:1,2008-06-02T07:00:00Z,26.4966,-82.1479,2.24,38.79,1111122 
SCCF RECON,ioos:station:SCCF:12:1,2008-06-02T08:00:00Z,26.4966,-82.1479,2.17,38.72,1111122 
SCCF RECON,ioos:station:SCCF:12:1,2008-06-02T09:00:00Z,26.4966,-82.1479,2.12,38.68,1111122 
SCCF RECON,ioos:station:SCCF:12:1,2008-06-02T10:00:00Z,26.4966,-82.1479,2.08,38.81,1111122 
SCCF RECON,ioos:station:SCCF:12:1,2008-06-02T11:00:00Z,26.4966,-82.1479,2.092,38.71,1111122 
SCCF RECON,ioos:station:SCCF:12:1,2008-06-02T12:00:00Z,26.4966,-82.1479,2.2,38.82,1111122 
SCCF RECON,ioos:station:SCCF:12:1,2008-06-02T13:00:00Z,26.4966,-82.1479,2.35,38.9,1111122 
SCCF RECON,ioos:station:SCCF:12:1,2008-06-02T14:00:00Z,26.4966,-82.1479,2.477,38.93,1111122 
SCCF RECON,ioos:station:SCCF:12:1,2008-06-02T15:00:00Z,26.4966,-82.1479,2.589,38.91,1111122 
SCCF RECON,ioos:station:SCCF:12:1,2008-06-02T16:00:00Z,26.4966,-82.1479,1.447,38.83,1111122 
SCCF RECON,ioos:station:SCCF:12:1,2008-06-02T17:00:00Z,26.4966,-82.1479,2.5,38.88,1111122 
SCCF RECON,ioos:station:SCCF:12:1,2008-06-02T18:00:00Z,26.4966,-82.1479,2.38,38.91,1111122 
SCCF RECON,ioos:station:SCCF:12:1,2008-06-02T19:00:00Z,26.4966,-82.1479,2.22,38.84,1111122 
SCCF RECON,ioos:station:SCCF:12:1,2008-06-02T20:00:00Z,26.4966,-82.1479,2.06,38.86,1111122 
SCCF RECON,ioos:station:SCCF:12:1,2008-06-02T21:00:00Z,26.4966,-82.1479,1.91,38.89,1111122 
SCCF RECON,ioos:station:SCCF:12:1,2008-06-02T22:00:00Z,26.4966,-82.1479,1.756,38.92,1111122 
SCCF RECON,ioos:station:SCCF:12:1,2008-06-02T23:00:00Z,26.4966,-82.1479,1.63,38.95,1111122 
SCCF RECON,ioos:station:SCCF:12:1,2008-06-03T00:00:00Z,26.4966,-82.1479,1.54,38.96,1111122 
SCCF RECON,ioos:station:SCCF:12:1,2008-06-03T01:00:00Z,26.4966,-82.1479,1.55,38.89,1111122 
SCCF RECON,ioos:station:SCCF:12:1,2008-06-03T02:00:00Z,26.4966,-82.1479,1.75,38.73,1111122 
SCCF RECON,ioos:station:SCCF:12:1,2008-06-03T03:00:00Z,26.4966,-82.1479,1.9,38.51,1111122 
SCCF RECON,ioos:station:SCCF:12:1,2008-06-03T04:00:00Z,26.4966,-82.1479,2.03,38.76,1111122 
SCCF RECON,ioos:station:SCCF:12:1,2008-06-03T05:00:00Z,26.4966,-82.1479,2.14,38.71,1111122 
SCCF RECON,ioos:station:SCCF:12:1,2008-06-03T06:00:00Z,26.4966,-82.1479,2.21,38.81,1111122 
SCCF RECON,ioos:station:SCCF:12:1,2008-06-03T07:00:00Z,26.4966,-82.1479,2.23,38.72,1111122 
SCCF RECON,ioos:station:SCCF:12:1,2008-06-03T08:00:00Z,26.4966,-82.1479,2.2,38.71,1111122 
SCCF RECON,ioos:station:SCCF:12:1,2008-06-03T09:00:00Z,26.4966,-82.1479,2.14,38.69,1111122 
SCCF RECON,ioos:station:SCCF:12:1,2008-06-03T10:00:00Z,26.4966,-82.1479,2.101,38.7,1111122 
SCCF RECON,ioos:station:SCCF:12:1,2008-06-03T11:00:00Z,26.4966,-82.1479,2.119,38.69,1111122 
SCCF RECON,ioos:station:SCCF:12:1,2008-06-03T12:00:00Z,26.4966,-82.1479,2.17,38.7,1111122 
SCCF RECON,ioos:station:SCCF:12:1,2008-06-03T13:00:00Z,26.4966,-82.1479,2.278,38.71,1111122 
SCCF RECON,ioos:station:SCCF:12:1,2008-06-03T14:00:00Z,26.4966,-82.1479,2.402,38.73,1111122 
SCCF RECON,ioos:station:SCCF:12:1,2008-06-03T15:00:00Z,26.4966,-82.1479,2.502,38.74,1111122 
SCCF RECON,ioos:station:SCCF:12:1,2008-06-03T16:00:00Z,26.4966,-82.1479,2.558,38.75,1111122 
SCCF RECON,ioos:station:SCCF:12:1,2008-06-03T17:00:00Z,26.4966,-82.1479,2.55,38.76,1111122 
SCCF RECON,ioos:station:SCCF:12:1,2008-06-03T18:00:00Z,26.4966,-82.1479,2.478,38.73,1111122 
SCCF RECON,ioos:station:SCCF:12:1,2008-06-03T19:00:00Z,26.4966,-82.1479,2.35,38.7,1111122 
SCCF RECON,ioos:station:SCCF:12:1,2008-06-03T20:00:00Z,26.4966,-82.1479,2.182,38.6,1111122 
SCCF RECON,ioos:station:SCCF:12:1,2008-06-03T21:00:00Z,26.4966,-82.1479,2.028,38.61,1111122 
SCCF RECON,ioos:station:SCCF:12:1,2008-06-03T22:00:00Z,26.4966,-82.1479,1.87,38.73,1111122 
SCCF RECON,ioos:station:SCCF:12:1,2008-06-03T23:00:00Z,26.4966,-82.1479,1.732,38.8,1111122 
SCCF RECON,ioos:station:SCCF:12:1,2008-06-04T00:00:00Z,26.4966,-82.1479,1.61,38.79,1111122 
SCCF RECON,ioos:station:SCCF:12:1,2008-06-04T01:00:00Z,26.4966,-82.1479,1.52,38.77,1111122 
SCCF RECON,ioos:station:SCCF:12:1,2008-06-04T02:00:00Z,26.4966,-82.1479,1.547,38.74,1111122 
SCCF RECON,ioos:station:SCCF:12:1,2008-06-04T03:00:00Z,26.4966,-82.1479,1.731,38.73,1111122 
SCCF RECON,ioos:station:SCCF:12:1,2008-06-04T04:00:00Z,26.4966,-82.1479,1.89,38.72,1111122 
SCCF RECON,ioos:station:SCCF:12:1,2008-06-04T05:00:00Z,26.4966,-82.1479,2.01,38.77,1111122 
SCCF RECON,ioos:station:SCCF:12:1,2008-06-04T06:00:00Z,26.4966,-82.1479,2.12,38.78,1111122 
SCCF RECON,ioos:station:SCCF:12:1,2008-06-04T07:00:00Z,26.4966,-82.1479,2.2,38.7,1111122 
SCCF RECON,ioos:station:SCCF:12:1,2008-06-04T08:00:00Z,26.4966,-82.1479,2.21,38.61,1111122 
SCCF RECON,ioos:station:SCCF:12:1,2008-06-04T09:00:00Z,26.4966,-82.1479,2.153,38.62,1111122 
SCCF RECON,ioos:station:SCCF:12:1,2008-06-04T10:00:00Z,26.4966,-82.1479,2.1,38.61,1111122 
SCCF RECON,ioos:station:SCCF:12:1,2008-06-04T11:00:00Z,26.4966,-82.1479,2.1,38.57,1111122 
SCCF RECON,ioos:station:SCCF:12:1,2008-06-04T12:00:00Z,26.4966,-82.1479,2.12,38.56,1111122 
SCCF RECON,ioos:station:SCCF:12:1,2008-06-04T13:00:00Z,26.4966,-82.1479,2.2,38.58,1111122 
SCCF RECON,ioos:station:SCCF:12:1,2008-06-04T14:00:00Z,26.4966,-82.1479,2.32,38.61,1111122 
SCCF RECON,ioos:station:SCCF:12:1,2008-06-04T15:00:00Z,26.4966,-82.1479,2.46,38.61,1111122 
SCCF RECON,ioos:station:SCCF:12:1,2008-06-04T16:00:00Z,26.4966,-82.1479,2.55,38.61,1111122 
SCCF RECON,ioos:station:SCCF:12:1,2008-06-04T17:00:00Z,26.4966,-82.1479,2.59,38.64,1111122 
SCCF RECON,ioos:station:SCCF:12:1,2008-06-04T18:00:00Z,26.4966,-82.1479,2.57,38.61,1111122 
SCCF RECON,ioos:station:SCCF:12:1,2008-06-04T19:00:00Z,26.4966,-82.1479,2.49,38.62,1111122 
SCCF RECON,ioos:station:SCCF:12:1,2008-06-04T20:00:00Z,26.4966,-82.1479,2.35,38.56,1111122 
SCCF RECON,ioos:station:SCCF:12:1,2008-06-04T21:00:00Z,26.4966,-82.1479,2.181,38.56,1111122 
SCCF RECON,ioos:station:SCCF:12:1,2008-06-04T22:00:00Z,26.4966,-82.1479,2.02,38.58,1111122 
SCCF RECON,ioos:station:SCCF:12:1,2008-06-04T23:00:00Z,26.4966,-82.1479,1.876,38.61,1111122 
SCCF RECON,ioos:station:SCCF:12:1,2008-06-05T00:00:00Z,26.4966,-82.1479,1.74,38.78,1111122 
SCCF RECON,ioos:station:SCCF:12:1,2008-06-05T01:00:00Z,26.4966,-82.1479,1.61,38.73,1111122 
SCCF RECON,ioos:station:SCCF:12:1,2008-06-05T02:00:00Z,26.4966,-82.1479,1.53,38.73,1111122 
SCCF RECON,ioos:station:SCCF:12:1,2008-06-05T03:00:00Z,26.4966,-82.1479,1.57,38.64,1111122 
SCCF RECON,ioos:station:SCCF:12:1,2008-06-05T04:00:00Z,26.4966,-82.1479,1.79,38.68,1111122 
SCCF RECON,ioos:station:SCCF:12:1,2008-06-05T05:00:00Z,26.4966,-82.1479,1.93,38.64,1111122 
SCCF RECON,ioos:station:SCCF:12:1,2008-06-05T06:00:00Z,26.4966,-82.1479,2.07,38.69,1111122 
SCCF RECON,ioos:station:SCCF:12:1,2008-06-05T07:00:00Z,26.4966,-82.1479,2.169,38.77,1111122 
SCCF RECON,ioos:station:SCCF:12:1,2008-06-05T08:00:00Z,26.4966,-82.1479,2.21,38.6,1111122 
SCCF RECON,ioos:station:SCCF:12:1,2008-06-05T09:00:00Z,26.4966,-82.1479,2.185,38.58,1111122 
SCCF RECON,ioos:station:SCCF:12:1,2008-06-05T10:00:00Z,26.4966,-82.1479,2.128,38.6,1111122 
SCCF RECON,ioos:station:SCCF:12:1,2008-06-05T11:00:00Z,26.4966,-82.1479,2.089,38.58,1111122 
SCCF RECON,ioos:station:SCCF:12:1,2008-06-05T12:00:00Z,26.4966,-82.1479,2.11,38.56,1111122 
SCCF RECON,ioos:station:SCCF:12:1,2008-06-05T13:00:00Z,26.4966,-82.1479,2.159,38.55,1111122 
SCCF RECON,ioos:station:SCCF:12:1,2008-06-05T14:00:00Z,26.4966,-82.1479,2.23,38.55,1111122 
SCCF RECON,ioos:station:SCCF:12:1,2008-06-05T15:00:00Z,26.4966,-82.1479,2.357,38.58,1111122 
SCCF RECON,ioos:station:SCCF:12:1,2008-06-05T16:00:00Z,26.4966,-82.1479,2.488,38.6,1111122 
SCCF RECON,ioos:station:SCCF:12:1,2008-06-05T17:00:00Z,26.4966,-82.1479,2.57,38.6,1111122 
SCCF RECON,ioos:station:SCCF:12:1,2008-06-05T18:00:00Z,26.4966,-82.1479,2.609,38.62,1111122 
SCCF RECON,ioos:station:SCCF:12:1,2008-06-05T19:00:00Z,26.4966,-82.1479,2.586,38.58,1111122 
SCCF RECON,ioos:station:SCCF:12:1,2008-06-05T20:00:00Z,26.4966,-82.1479,2.492,38.62,1111122 
SCCF RECON,ioos:station:SCCF:12:1,2008-06-05T21:00:00Z,26.4966,-82.1479,2.35,38.55,1111122 
SCCF RECON,ioos:station:SCCF:12:1,2008-06-05T22:00:00Z,26.4966,-82.1479,2.19,38.55,1111122 
SCCF RECON,ioos:station:SCCF:12:1,2008-06-05T23:00:00Z,26.4966,-82.1479,2.05,38.58,1111122 
SCCF RECON,ioos:station:SCCF:12:1,2008-06-06T00:00:00Z,26.4966,-82.1479,1.909,38.65,1111122 
SCCF RECON,ioos:station:SCCF:12:1,2008-06-06T01:00:00Z,26.4966,-82.1479,1.76,38.67,1111122 
SCCF RECON,ioos:station:SCCF:12:1,2008-06-06T02:00:00Z,26.4966,-82.1479,1.64,38.79,1111122 
SCCF RECON,ioos:station:SCCF:12:1,2008-06-06T03:00:00Z,26.4966,-82.1479,1.57,38.75,1111122 
SCCF RECON,ioos:station:SCCF:12:1,2008-06-06T04:00:00Z,26.4966,-82.1479,1.621,38.71,1111122 
SCCF RECON,ioos:station:SCCF:12:1,2008-06-06T05:00:00Z,26.4966,-82.1479,1.803,38.57,1111122 
SCCF RECON,ioos:station:SCCF:12:1,2008-06-06T06:00:00Z,26.4966,-82.1479,1.939,38.69,1111122 
SCCF RECON,ioos:station:SCCF:12:1,2008-06-06T07:00:00Z,26.4966,-82.1479,2.042,38.75,1111122 
SCCF RECON,ioos:station:SCCF:12:1,2008-06-06T08:00:00Z,26.4966,-82.1479,2.129,38.86,1111122 
SCCF RECON,ioos:station:SCCF:12:1,2008-06-06T09:00:00Z,26.4966,-82.1479,2.16,38.69,1111122 
SCCF RECON,ioos:station:SCCF:12:1,2008-06-06T10:00:00Z,26.4966,-82.1479,2.146,38.56,1111122 
SCCF RECON,ioos:station:SCCF:12:1,2008-06-06T11:00:00Z,26.4966,-82.1479,2.106,38.59,1111122 
SCCF RECON,ioos:station:SCCF:12:1,2008-06-06T12:00:00Z,26.4966,-82.1479,2.097,38.58,1111122 
SCCF RECON,ioos:station:SCCF:12:1,2008-06-06T13:00:00Z,26.4966,-82.1479,2.133,38.55,1111122 
SCCF RECON,ioos:station:SCCF:12:1,2008-06-06T14:00:00Z,26.4966,-82.1479,2.189,38.53,1111122 
SCCF RECON,ioos:station:SCCF:12:1,2008-06-06T15:00:00Z,26.4966,-82.1479,2.269,38.53,1111122 
SCCF RECON,ioos:station:SCCF:12:1,2008-06-06T16:00:00Z,26.4966,-82.1479,2.381,38.52,1111122 
SCCF RECON,ioos:station:SCCF:12:1,2008-06-06T17:00:00Z,26.4966,-82.1479,2.485,38.57,1111122 
SCCF RECON,ioos:station:SCCF:12:1,2008-06-06T18:00:00Z,26.4966,-82.1479,2.551,38.59,1111122 
SCCF RECON,ioos:station:SCCF:12:1,2008-06-06T19:00:00Z,26.4966,-82.1479,2.58,38.63,1111122 
SCCF RECON,ioos:station:SCCF:12:1,2008-06-06T20:00:00Z,26.4966,-82.1479,2.557,38.8,1111122 
SCCF RECON,ioos:station:SCCF:12:1,2008-06-06T21:00:00Z,26.4966,-82.1479,2.47,38.82,1111122 
SCCF RECON,ioos:station:SCCF:12:1,2008-06-06T22:00:00Z,26.4966,-82.1479,2.34,38.77,1111122 
SCCF RECON,ioos:station:SCCF:12:1,2008-06-06T23:00:00Z,26.4966,-82.1479,2.19,38.65,1111122 
SCCF RECON,ioos:station:SCCF:12:1,2008-06-07T00:00:00Z,26.4966,-82.1479,2.051,38.67,1111122 
SCCF RECON,ioos:station:SCCF:12:1,2008-06-07T01:00:00Z,26.4966,-82.1479,1.92,38.61,1111122 
SCCF RECON,ioos:station:SCCF:12:1,2008-06-07T02:00:00Z,26.4966,-82.1479,1.798,38.65,1111122 
SCCF RECON,ioos:station:SCCF:12:1,2008-06-07T03:00:00Z,26.4966,-82.1479,1.681,38.64,1111122 
SCCF RECON,ioos:station:SCCF:12:1,2008-06-07T04:00:00Z,26.4966,-82.1479,1.615,38.64,1111122 
SCCF RECON,ioos:station:SCCF:12:1,2008-06-07T05:00:00Z,26.4966,-82.1479,1.696,38.63,1111122 
SCCF RECON,ioos:station:SCCF:12:1,2008-06-07T06:00:00Z,26.4966,-82.1479,1.878,38.55,1111122 
SCCF RECON,ioos:station:SCCF:12:1,2008-06-07T07:00:00Z,26.4966,-82.1479,2.0,38.53,1111122 
SCCF RECON,ioos:station:SCCF:12:1,2008-06-07T08:00:00Z,26.4966,-82.1479,2.08,38.68,1111122 
SCCF RECON,ioos:station:SCCF:12:1,2008-06-07T09:00:00Z,26.4966,-82.1479,2.13,38.77,1111122 
SCCF RECON,ioos:station:SCCF:12:1,2008-06-07T10:00:00Z,26.4966,-82.1479,2.14,38.66,1111122 
SCCF RECON,ioos:station:SCCF:12:1,2008-06-07T11:00:00Z,26.4966,-82.1479,2.131,38.5,1111122 
SCCF RECON,ioos:station:SCCF:12:1,2008-06-07T12:00:00Z,26.4966,-82.1479,2.13,38.46,1111122 
SCCF RECON,ioos:station:SCCF:12:1,2008-06-07T13:00:00Z,26.4966,-82.1479,2.122,38.47,1111122 
SCCF RECON,ioos:station:SCCF:12:1,2008-06-07T14:00:00Z,26.4966,-82.1479,2.12,38.53,1111122 
SCCF RECON,ioos:station:SCCF:12:1,2008-06-07T15:00:00Z,26.4966,-82.1479,2.158,38.55,1111122 
SCCF RECON,ioos:station:SCCF:12:1,2008-06-07T16:00:00Z,26.4966,-82.1479,2.219,38.66,1111122 
SCCF RECON,ioos:station:SCCF:12:1,2008-06-07T17:00:00Z,26.4966,-82.1479,2.292,38.74,1111122 
SCCF RECON,ioos:station:SCCF:12:1,2008-06-07T18:00:00Z,26.4966,-82.1479,2.376,38.7,1111122 
SCCF RECON,ioos:station:SCCF:12:1,2008-06-07T19:00:00Z,26.4966,-82.1479,2.449,38.69,1111122 
SCCF RECON,ioos:station:SCCF:12:1,2008-06-07T20:00:00Z,26.4966,-82.1479,2.469,38.7,1111122 
SCCF RECON,ioos:station:SCCF:12:1,2008-06-07T21:00:00Z,26.4966,-82.1479,2.43,38.85,1111122 
SCCF RECON,ioos:station:SCCF:12:1,2008-06-07T22:00:00Z,26.4966,-82.1479,2.373,38.77,1111122 
SCCF RECON,ioos:station:SCCF:12:1,2008-06-07T23:00:00Z,26.4966,-82.1479,2.29,38.72,1111122 
SCCF RECON,ioos:station:SCCF:12:1,2008-06-08T00:00:00Z,26.4966,-82.1479,2.169,38.64,1111122 
SCCF RECON,ioos:station:SCCF:12:1,2008-06-08T01:00:00Z,26.4966,-82.1479,2.039,38.68,1111122 
SCCF RECON,ioos:station:SCCF:12:1,2008-06-08T02:00:00Z,26.4966,-82.1479,1.918,38.7,1111122 
SCCF RECON,ioos:station:SCCF:12:1,2008-06-08T03:00:00Z,26.4966,-82.1479,1.806,38.72,1111122 
SCCF RECON,ioos:station:SCCF:12:1,2008-06-08T04:00:00Z,26.4966,-82.1479,1.706,38.74,1111122 
SCCF RECON,ioos:station:SCCF:12:1,2008-06-08T05:00:00Z,26.4966,-82.1479,1.676,38.77,1111122 
SCCF RECON,ioos:station:SCCF:12:1,2008-06-08T06:00:00Z,26.4966,-82.1479,1.747,38.77,1111122 
SCCF RECON,ioos:station:SCCF:12:1,2008-06-08T07:00:00Z,26.4966,-82.1479,1.895,38.75,1111122 
SCCF RECON,ioos:station:SCCF:12:1,2008-06-08T08:00:00Z,26.4966,-82.1479,2.01,38.69,1111122 
SCCF RECON,ioos:station:SCCF:12:1,2008-06-08T09:00:00Z,26.4966,-82.1479,2.1,38.69,1111122 
SCCF RECON,ioos:station:SCCF:12:1,2008-06-08T10:00:00Z,26.4966,-82.1479,2.173,38.85,1111122 
SCCF RECON,ioos:station:SCCF:12:1,2008-06-08T11:00:00Z,26.4966,-82.1479,2.224,38.75,1111122 
SCCF RECON,ioos:station:SCCF:12:1,2008-06-08T12:00:00Z,26.4966,-82.1479,2.22,38.59,1111122 
SCCF RECON,ioos:station:SCCF:12:1,2008-06-08T13:00:00Z,26.4966,-82.1479,2.161,38.49,1111122 
SCCF RECON,ioos:station:SCCF:12:1,2008-06-08T14:00:00Z,26.4966,-82.1479,2.1,38.51,1111122 
SCCF RECON,ioos:station:SCCF:12:1,2008-06-08T15:00:00Z,26.4966,-82.1479,2.065,38.51,1111122 
SCCF RECON,ioos:station:SCCF:12:1,2008-06-08T16:00:00Z,26.4966,-82.1479,2.079,38.51,1111122 
SCCF RECON,ioos:station:SCCF:12:1,2008-06-08T17:00:00Z,26.4966,-82.1479,2.129,38.72,1111122 
SCCF RECON,ioos:station:SCCF:12:1,2008-06-08T18:00:00Z,26.4966,-82.1479,2.209,38.75,1111122 
SCCF RECON,ioos:station:SCCF:12:1,2008-06-08T19:00:00Z,26.4966,-82.1479,2.3,38.74,1111122 
SCCF RECON,ioos:station:SCCF:12:1,2008-06-08T20:00:00Z,26.4966,-82.1479,2.37,38.74,1111122 
SCCF RECON,ioos:station:SCCF:12:1,2008-06-08T21:00:00Z,26.4966,-82.1479,2.369,38.74,1111122 
SCCF RECON,ioos:station:SCCF:12:1,2008-06-08T22:00:00Z,26.4966,-82.1479,2.339,38.74,1111122 
SCCF RECON,ioos:station:SCCF:12:1,2008-06-08T23:00:00Z,26.4966,-82.1479,2.308,38.74,1111122 
SCCF RECON,ioos:station:SCCF:12:1,2008-06-09T00:00:00Z,26.4966,-82.1479,2.27,38.62,1111122 
SCCF RECON,ioos:station:SCCF:12:1,2008-06-09T01:00:00Z,26.4966,-82.1479,2.13,38.62,1111122 
SCCF RECON,ioos:station:SCCF:12:1,2008-06-09T02:00:00Z,26.4966,-82.1479,2.01,38.65,1111122 
SCCF RECON,ioos:station:SCCF:12:1,2008-06-09T03:00:00Z,26.4966,-82.1479,1.9,38.7,1111122 
SCCF RECON,ioos:station:SCCF:12:1,2008-06-09T04:00:00Z,26.4966,-82.1479,1.8,38.73,1111122 
SCCF RECON,ioos:station:SCCF:12:1,2008-06-09T05:00:00Z,26.4966,-82.1479,1.73,38.76,1111122 
SCCF RECON,ioos:station:SCCF:12:1,2008-06-09T06:00:00Z,26.4966,-82.1479,1.75,38.73,1111122 
SCCF RECON,ioos:station:SCCF:12:1,2008-06-09T07:00:00Z,26.4966,-82.1479,1.88,38.7,1111122 
SCCF RECON,ioos:station:SCCF:12:1,2008-06-09T08:00:00Z,26.4966,-82.1479,2.03,38.56,1111122 
SCCF RECON,ioos:station:SCCF:12:1,2008-06-09T09:00:00Z,26.4966,-82.1479,2.14,38.71,1111122 
SCCF RECON,ioos:station:SCCF:12:1,2008-06-09T10:00:00Z,26.4966,-82.1479,2.2,38.73,1111122 
SCCF RECON,ioos:station:SCCF:12:1,2008-06-09T11:00:00Z,26.4966,-82.1479,2.237,38.79,1111122 
SCCF RECON,ioos:station:SCCF:12:1,2008-06-09T12:00:00Z,26.4966,-82.1479,2.24,38.81,1111122 
SCCF RECON,ioos:station:SCCF:12:1,2008-06-09T13:00:00Z,26.4966,-82.1479,2.225,38.67,1111122 
SCCF RECON,ioos:station:SCCF:12:1,2008-06-09T14:00:00Z,26.4966,-82.1479,2.191,38.6,1111122 
SCCF RECON,ioos:station:SCCF:12:1,2008-06-09T15:00:00Z,26.4966,-82.1479,2.14,38.57,1111122 
SCCF RECON,ioos:station:SCCF:12:1,2008-06-09T16:00:00Z,26.4966,-82.1479,2.092,38.7,1111122 
SCCF RECON,ioos:station:SCCF:12:1,2008-06-09T17:00:00Z,26.4966,-82.1479,2.066,38.71,1111122 
SCCF RECON,ioos:station:SCCF:12:1,2008-06-09T18:00:00Z,26.4966,-82.1479,2.079,38.76,1111122 
SCCF RECON,ioos:station:SCCF:12:1,2008-06-09T19:00:00Z,26.4966,-82.1479,2.136,38.78,1111122 
SCCF RECON,ioos:station:SCCF:12:1,2008-06-09T20:00:00Z,26.4966,-82.1479,2.246,38.75,1111122 
SCCF RECON,ioos:station:SCCF:12:1,2008-06-09T21:00:00Z,26.4966,-82.1479,2.33,38.72,1111122 
SCCF RECON,ioos:station:SCCF:12:1,2008-06-09T22:00:00Z,26.4966,-82.1479,2.28,38.72,1111122 
SCCF RECON,ioos:station:SCCF:12:1,2008-06-09T23:00:00Z,26.4966,-82.1479,2.25,38.75,1111122 
SCCF RECON,ioos:station:SCCF:12:1,2008-06-10T00:00:00Z,26.4966,-82.1479,2.24,38.75,1111122 
SCCF RECON,ioos:station:SCCF:12:1,2008-06-10T01:00:00Z,26.4966,-82.1479,2.24,38.65,1111122 
SCCF RECON,ioos:station:SCCF:12:1,2008-06-10T02:00:00Z,26.4966,-82.1479,2.16,38.5,1111122 
SCCF RECON,ioos:station:SCCF:12:1,2008-06-10T03:00:00Z,26.4966,-82.1479,2.05,38.48,1111122 
SCCF RECON,ioos:station:SCCF:12:1,2008-06-10T04:00:00Z,26.4966,-82.1479,1.96,38.49,1111122 
SCCF RECON,ioos:station:SCCF:12:1,2008-06-10T05:00:00Z,26.4966,-82.1479,1.93,38.52,1111122 
SCCF RECON,ioos:station:SCCF:12:1,2008-06-10T06:00:00Z,26.4966,-82.1479,1.96,38.52,1111122 
SCCF RECON,ioos:station:SCCF:12:1,2008-06-10T07:00:00Z,26.4966,-82.1479,1.98,38.53,1111122 
SCCF RECON,ioos:station:SCCF:12:1,2008-06-10T08:00:00Z,26.4966,-82.1479,2.05,38.62,1111122 
SCCF RECON,ioos:station:SCCF:12:1,2008-06-10T09:00:00Z,26.4966,-82.1479,2.155,38.68,1111122 
SCCF RECON,ioos:station:SCCF:12:1,2008-06-10T10:00:00Z,26.4966,-82.1479,2.24,38.66,1111122 
SCCF RECON,ioos:station:SCCF:12:1,2008-06-10T11:00:00Z,26.4966,-82.1479,2.296,38.6,1111122 
SCCF RECON,ioos:station:SCCF:12:1,2008-06-10T12:00:00Z,26.4966,-82.1479,2.33,38.51,1111122 
SCCF RECON,ioos:station:SCCF:12:1,2008-06-10T13:00:00Z,26.4966,-82.1479,2.33,38.54,1111122 
SCCF RECON,ioos:station:SCCF:12:1,2008-06-10T14:00:00Z,26.4966,-82.1479,2.27,38.71,1111122 
SCCF RECON,ioos:station:SCCF:12:1,2008-06-10T15:00:00Z,26.4966,-82.1479,2.184,38.65,1111122 
SCCF RECON,ioos:station:SCCF:12:1,2008-06-10T16:00:00Z,26.4966,-82.1479,2.09,38.78,1111122 
SCCF RECON,ioos:station:SCCF:12:1,2008-06-10T17:00:00Z,26.4966,-82.1479,2.01,38.68,1111122 
SCCF RECON,ioos:station:SCCF:12:1,2008-06-10T18:00:00Z,26.4966,-82.1479,1.95,38.67,1111122 
SCCF RECON,ioos:station:SCCF:12:1,2008-06-10T19:00:00Z,26.4966,-82.1479,1.93,38.73,1111122 
SCCF RECON,ioos:station:SCCF:12:1,2008-06-10T20:00:00Z,26.4966,-82.1479,2.0,38.66,1111122 
SCCF RECON,ioos:station:SCCF:12:1,2008-06-10T21:00:00Z,26.4966,-82.1479,2.09,38.55,1111122 
SCCF RECON,ioos:station:SCCF:12:1,2008-06-10T22:00:00Z,26.4966,-82.1479,2.166,38.63,1111122 
SCCF RECON,ioos:station:SCCF:12:1,2008-06-10T23:00:00Z,26.4966,-82.1479,2.2,38.63,1111122 
SCCF RECON,ioos:station:SCCF:12:1,2008-06-11T00:00:00Z,26.4966,-82.1479,2.22,38.67,1111122 
SCCF RECON,ioos:station:SCCF:12:1,2008-06-11T01:00:00Z,26.4966,-82.1479,2.22,38.64,1111122 
SCCF RECON,ioos:station:SCCF:12:1,2008-06-11T02:00:00Z,26.4966,-82.1479,2.181,38.65,1111122 
SCCF RECON,ioos:station:SCCF:12:1,2008-06-11T03:00:00Z,26.4966,-82.1479,2.118,38.68,1111122 
SCCF RECON,ioos:station:SCCF:12:1,2008-06-11T04:00:00Z,26.4966,-82.1479,2.022,38.68,1111122 
SCCF RECON,ioos:station:SCCF:12:1,2008-06-11T05:00:00Z,26.4966,-82.1479,1.95,38.68,1111122 
SCCF RECON,ioos:station:SCCF:12:1,2008-06-11T06:00:00Z,26.4966,-82.1479,1.9,38.69,1111122 
SCCF RECON,ioos:station:SCCF:12:1,2008-06-11T07:00:00Z,26.4966,-82.1479,1.9,38.72,1111122 
SCCF RECON,ioos:station:SCCF:12:1,2008-06-11T08:00:00Z,26.4966,-82.1479,1.962,38.7,1111122 
SCCF RECON,ioos:station:SCCF:12:1,2008-06-11T09:00:00Z,26.4966,-82.1479,2.07,38.69,1111122 
SCCF RECON,ioos:station:SCCF:12:1,2008-06-11T10:00:00Z,26.4966,-82.1479,2.19,38.68,1111122 
SCCF RECON,ioos:station:SCCF:12:1,2008-06-11T11:00:00Z,26.4966,-82.1479,2.28,38.67,1111122 
SCCF RECON,ioos:station:SCCF:12:1,2008-06-11T12:00:00Z,26.4966,-82.1479,2.31,38.65,1111122 
SCCF RECON,ioos:station:SCCF:12:1,2008-06-11T13:00:00Z,26.4966,-82.1479,2.319,38.66,1111122 
SCCF RECON,ioos:station:SCCF:12:1,2008-06-11T14:00:00Z,26.4966,-82.1479,2.295,38.7,1111122 
SCCF RECON,ioos:station:SCCF:12:1,2008-06-11T15:00:00Z,26.4966,-82.1479,2.23,38.75,1111122 
SCCF RECON,ioos:station:SCCF:12:1,2008-06-11T16:00:00Z,26.4966,-82.1479,2.15,38.67,1111122 
SCCF RECON,ioos:station:SCCF:12:1,2008-06-11T17:00:00Z,26.4966,-82.1479,2.059,38.7,1111122 
SCCF RECON,ioos:station:SCCF:12:1,2008-06-11T18:00:00Z,26.4966,-82.1479,1.97,38.75,1111122 